Flag for Saint Kitts and Nevis Weather past 2 weeks in Basseterre, Saint Kitts and Nevis

Now
82 °F

Scattered showers. Scattered clouds.


Feels Like: 87 °F
Forecast: 78 / 81 °F
Wind: 16 mph from East

Location: Golden Rock


UV Index: 7 (High)

Visibility: 4 mi


Pressure: 30.07 "Hg

Humidity: 70%

Dew point: 72 °F

Location of BasseterreLocation

Historic Weather in Basseterre

°F

Basseterre temperature yesterday

Maximum temperature yesterday: 84 °F (at 12:00 PM)
Minimum temperature yesterday: 75 °F (at 6:00 AM)
Average temperature yesterday: 80 °F

Past Weeks' High & Low Weather Summary

 TemperatureHumidityPressure
High84 °F (Apr 4, 1:00 PM)100% (Apr 5, 10:00 AM)30.12 "Hg (Apr 5, 10:00 AM)
Low72 °F (Apr 5, 9:00 AM)55% (Apr 10, 2:00 PM)29.89 "Hg (Apr 15, 3:00 PM)
Average79 °F75%30.03 "Hg
* Reported Apr 4 1:00 PM — Apr 19 1:00 PM, Basseterre, Weather by CustomWeather, © 2014

Note: Actual official high and low records may vary slightly from our data, if they occured in-between our weather recording intervals... More about our weather records

Advertising

Historic Weather Conditions — Data for Previous 24 hours

 ConditionsComfort  
Time TempWeatherWind HumidityBarometerVisibility
1:00 PM
Apr 19
82 °FScattered showers. Scattered clouds.16 mph70%30.07 "Hg4 mi
12:00 PM82 °FPartly sunny.14 mph70%30.07 "HgN/A
11:00 AM81 °FScattered clouds.22 mph74%30.07 "HgN/A
10:00 AM81 °FScattered clouds.18 mph79%30.07 "HgN/A
9:00 AM79 °FPartly sunny.22 mph79%30.07 "HgN/A
8:00 AM77 °FScattered clouds.16 mph89%30.07 "HgN/A
7:00 AM77 °FScattered showers. Partly sunny.16 mph83%30.07 "HgN/A
6:00 AM77 °FScattered clouds.14 mph83%30.04 "HgN/A
9:00 PM
Apr 18
77 °FPassing clouds.15 mph79%30.04 "HgN/A
8:00 PM77 °FPassing clouds.16 mph83%30.04 "HgN/A
7:00 PM77 °FPassing clouds.15 mph79%30.01 "HgN/A
6:00 PM79 °FScattered clouds.16 mph79%30.01 "HgN/A
5:00 PM81 °FPartly sunny.16 mph70%30.01 "HgN/A
4:00 PM82 °FScattered clouds.21 mph66%30.01 "HgN/A
3:00 PM82 °FScattered clouds.17 mph70%30.01 "HgN/A
2:00 PM82 °FScattered clouds.16 mph70%30.01 "HgN/A
1:00 PM82 °FPassing clouds.20 mph70%30.04 "HgN/A
Weather by CustomWeather, © 2014

See weather overview